Weather History for KHLN - May, 2013

Change the Weather History Date:

Wednesday, May 1, 2013

  Actual Average Record
Temperature  
Mean Temperature 37 °F 49 °F  
Max Temperature 50 °F 63 °F 82 °F (2000)
Min Temperature 24 °F 36 °F 20 °F (1954)
Degree Days  
Heating Degree Days 28 16  
Month to date heating degree days 28 16  
Since 1 July heating degree days 6719 7070  
Cooling Degree Days 0 0  
Month to date cooling degree days 0 0  
Year to date cooling degree days 0 0  
Moisture  
Dew Point 16 °F    
Average Humidity 48    
Maximum Humidity 74    
Minimum Humidity 21    
Precipitation  
Precipitation 0.00 in 0.04 in 1.14 in (1912)
Month to date precipitation 0.00 0.04  
Year to date precipitation 1.54 2.27  
Snow  
Snow 0.00 in 0.10 in 3.20 in (1892)
Month to date snowfall 0.0 0.1  
Since 1 July snowfall 39.7 37.3  
Snow Depth 0.00 in    
Sea Level Pressure  
Sea Level Pressure 30.56 in    
Wind  
Wind Speed 7 mph (West)    
Max Wind Speed 23 mph    
Max Gust Speed 28 mph    
Visibility 10 miles    
Events      
T = Trace of Precipitation, MM = Missing Value Source: NWS Daily Summary

Daily Weather History Graph

Daily Weather History Graph

Search for Another Location

Airport or City:

Trip Planner

Search our weather history database for the weather conditions in past years. The results will help you decide how hot, cold, wet, or windy it might be!

Date:

Astronomy

May. 01, 2013 Rise Set
Actual Time 6:12 AM MDT 8:37 PM MDT
Civil Twilight 5:39 AM MDT 9:11 PM MDT
Nautical Twilight 4:57 AM MDT 9:53 PM MDT
Astronomical Twilight 4:09 AM MDT 10:42 PM MDT
Moon 1:50 AM MDT (5/1) 11:55 AM MDT (5/1)
Length of Visible Light 15h 32m
Length of Day
14h 25m
Waning Gibbous, 58% of the Moon is Illuminated
May 1
Waning Gibbous
May 2
Last Quarter
May 9
New
May 17
First Quarter
May 24
Full

Hourly Weather History & Observations

Time (MDT) Temp. Windchill Dew Point Humidity Pressure Visibility Wind Dir Wind Speed Gust Speed Precip Events Conditions
12:53 AM 28.0 °F 21.7 °F 18.0 °F 66% 30.40 in 10.0 mi WSW 5.8 mph - N/A   Clear
1:53 AM 26.1 °F 17.6 °F 17.1 °F 69% 30.42 in 10.0 mi West 8.1 mph - N/A   Clear
2:53 AM 26.1 °F 19.4 °F 17.1 °F 69% 30.43 in 10.0 mi WSW 5.8 mph - N/A   Partly Cloudy
3:53 AM 25.0 °F 17.1 °F 18.0 °F 75% 30.45 in 10.0 mi West 6.9 mph - N/A   Mostly Cloudy
4:53 AM 26.1 °F - 17.1 °F 69% 30.48 in 10.0 mi Calm Calm - N/A   Clear
5:53 AM 25.0 °F - 17.1 °F 72% 30.51 in 10.0 mi Calm Calm - N/A   Mostly Cloudy
6:53 AM 25.0 °F - 17.1 °F 72% 30.54 in 10.0 mi Calm Calm - N/A   Scattered Clouds
7:53 AM 28.0 °F 24.2 °F 19.0 °F 69% 30.57 in 10.0 mi NE 3.5 mph - N/A   Scattered Clouds
8:53 AM 32.0 °F 28.7 °F 19.9 °F 61% 30.58 in 10.0 mi ENE 3.5 mph - N/A   Clear
9:53 AM 37.9 °F 34.4 °F 21.0 °F 51% 30.57 in 10.0 mi North 4.6 mph - N/A   Clear
10:53 AM 39.9 °F 34.5 °F 16.0 °F 38% 30.57 in 10.0 mi WSW 8.1 mph - N/A   Mostly Cloudy
11:53 AM 44.1 °F 37.4 °F 17.1 °F 34% 30.57 in 10.0 mi WSW 13.8 mph 20.7 mph N/A   Mostly Cloudy
12:53 PM 44.1 °F 38.6 °F 15.1 °F 31% 30.59 in 10.0 mi West 10.4 mph 20.7 mph N/A   Scattered Clouds
1:53 PM 46.0 °F 39.3 °F 14.0 °F 28% 30.58 in 10.0 mi SW 16.1 mph 24.2 mph N/A   Mostly Cloudy
2:53 PM 46.9 °F - 15.1 °F 28% 30.58 in 10.0 mi Variable 6.9 mph - N/A   Scattered Clouds
3:53 PM 45.0 °F - 18.0 °F 34% 30.59 in 10.0 mi Calm Calm - N/A   Overcast
4:53 PM 46.4 °F 39.2 °F 14.0 °F 27% 30.45 in 10.0 mi West 18.4 mph 27.6 mph N/A   Overcast
5:53 PM 48.0 °F - 12.0 °F 24% 30.59 in 10.0 mi West 15.0 mph - N/A   Overcast
6:53 PM 48.0 °F - 10.9 °F 22% 30.60 in 10.0 mi WNW 13.8 mph - N/A   Mostly Cloudy
7:53 PM 46.0 °F 40.6 °F 12.0 °F 25% 30.62 in 10.0 mi NW 11.5 mph - N/A   Scattered Clouds
8:53 PM 39.9 °F 35.1 °F 12.9 °F 33% 30.65 in 10.0 mi West 6.9 mph - N/A   Clear
9:53 PM 37.9 °F 33.5 °F 14.0 °F 38% 30.66 in 10.0 mi West 5.8 mph - N/A   Clear
10:53 PM 35.1 °F 32.2 °F 15.1 °F 44% 30.67 in 10.0 mi SW 3.5 mph - N/A   Clear
11:53 PM 37.0 °F 32.4 °F 15.1 °F 41% 30.66 in 10.0 mi SW 5.8 mph - N/A   Clear